Weather History for Cape Cod CGAS, MA

Change the Weather History Date:

Thursday, July 4, 2013

  Actual Average Record
Temperature  
Mean Temperature 75 °F -  
Max Temperature 82 °F 76 °F 95 °F (2002)
Min Temperature 68 °F 60 °F 57 °F (2005)
Cooling Degree Days 10    
Growing Degree Days 25 (Base 50)    
Moisture  
Dew Point 72 °F    
Average Humidity 91    
Maximum Humidity 100    
Minimum Humidity 74    
Precipitation  
Precipitation 0.01 in - - ()
Sea Level Pressure  
Sea Level Pressure 30.20 in    
Wind  
Wind Speed 15 mph (WSW)    
Max Wind Speed 23 mph    
Max Gust Speed 31 mph    
Visibility 6 miles    
Events Fog    
Averages and records for this station are not official NWS values.
T = Trace of Precipitation, MM = Missing Value Source: NWS Daily Summary

Daily Weather History Graph

Daily Weather History Graph

Search for Another Location

Airport:

Trip Planner

Search our weather history database for the weather conditions in past years. The results will help you decide how hot, cold, wet, or windy it might be!

Date:

Astronomy

Jul. 04, 2013 Rise Set
Actual Time 5:13 AM EDT 8:19 PM EDT
Civil Twilight 4:39 AM EDT 8:53 PM EDT
Nautical Twilight 3:56 AM EDT 9:36 PM EDT
Astronomical Twilight 3:04 AM EDT 10:27 PM EDT
Moon 2:28 AM EDT (7/4) 5:20 PM EDT (7/4)
Length of Visible Light 16h 14m
Length of Day
15h 06m
Waning Crescent, 11% of the Moon is Illuminated
Jul 4
Waning Crescent
Jul 8
New
Jul 15
First Quarter
Jul 22
Full
Jul 29
Last Quarter

Hourly Weather History & Observations

Time (EDT) Temp. Heat Index Dew Point Humidity Pressure Visibility Wind Dir Wind Speed Gust Speed Precip Events Conditions
12:15 AM 71.6 °F - 71.6 °F 100% 30.23 in 1.2 mi WSW 18.4 mph 26.5 mph N/A   Overcast
12:35 AM 71.6 °F - 71.6 °F 100% 30.22 in 2.0 mi WSW 15.0 mph 25.3 mph N/A   Overcast
12:55 AM 71.6 °F - 71.6 °F 100% 30.23 in 2.5 mi WSW 19.6 mph 25.3 mph N/A   Overcast
1:15 AM 71.6 °F - 71.6 °F 100% 30.22 in 4.0 mi WSW 18.4 mph 23.0 mph N/A   Overcast
1:35 AM 71.6 °F - 71.6 °F 100% 30.22 in 5.0 mi WSW 16.1 mph 24.2 mph N/A   Overcast
1:55 AM 71.6 °F - 71.6 °F 100% 30.22 in 4.0 mi WSW 15.0 mph - N/A   Overcast
2:15 AM 71.6 °F - 71.6 °F 100% 30.22 in 5.0 mi WSW 15.0 mph 24.2 mph N/A   Overcast
2:35 AM 71.6 °F - 71.6 °F 100% 30.21 in 2.5 mi WSW 12.7 mph 23.0 mph N/A   Overcast
2:55 AM 71.6 °F - 71.6 °F 100% 30.21 in 1.8 mi WSW 12.7 mph 20.7 mph N/A   Overcast
3:15 AM 71.6 °F - 71.6 °F 100% 30.21 in 1.0 mi WSW 16.1 mph 21.9 mph N/A   Overcast
3:35 AM 71.6 °F - 71.6 °F 100% 30.21 in 1.2 mi WSW 13.8 mph - N/A   Overcast
3:55 AM 69.8 °F - 69.8 °F 100% 30.21 in 0.8 mi WSW 9.2 mph - N/A   Overcast
4:15 AM 69.8 °F - 69.8 °F 100% 30.21 in 0.5 mi WSW 12.7 mph - N/A Fog Fog
4:35 AM 69.8 °F - 69.8 °F 100% 30.21 in 0.5 mi WSW 13.8 mph - N/A Fog Fog
4:55 AM 69.8 °F - 69.8 °F 100% 30.21 in 0.2 mi WSW 12.7 mph 20.7 mph N/A Fog Fog
5:15 AM 69.8 °F - 69.8 °F 100% 30.21 in 0.5 mi WSW 10.4 mph - N/A Fog Fog
5:35 AM 69.8 °F - 69.8 °F 100% 30.22 in 0.2 mi WSW 12.7 mph - N/A Fog Fog
5:55 AM 71.6 °F - 71.6 °F 100% 30.23 in 0.2 mi WSW 11.5 mph - N/A Fog Fog
6:15 AM 71.6 °F - 71.6 °F 100% 30.23 in 0.2 mi WSW 11.5 mph - N/A Fog Fog
6:35 AM 71.6 °F - 71.6 °F 100% 30.23 in 0.2 mi WSW 10.4 mph - N/A Fog Fog
6:55 AM 71.6 °F - 71.6 °F 100% 30.23 in 0.2 mi WSW 10.4 mph - N/A Fog Fog
7:15 AM 71.6 °F - 71.6 °F 100% 30.23 in 0.2 mi West 11.5 mph - N/A Fog Fog
7:35 AM 71.6 °F - 71.6 °F 100% 30.24 in 0.8 mi WSW 10.4 mph - N/A   Overcast
7:55 AM 71.6 °F - 71.6 °F 100% 30.24 in 3.0 mi WSW 12.7 mph - N/A   Overcast
8:15 AM 73.4 °F - 73.4 °F 100% 30.24 in 5.0 mi WSW 9.2 mph - N/A   Overcast
8:35 AM 73.4 °F - 73.4 °F 100% 30.24 in 7.0 mi WSW 9.2 mph - N/A   Overcast
8:55 AM 73.4 °F - 73.4 °F 100% 30.24 in 7.0 mi WSW 11.5 mph - N/A   Overcast
9:15 AM 75.2 °F - 71.6 °F 89% 30.24 in 7.0 mi WSW 13.8 mph - N/A   Overcast
9:35 AM 75.2 °F - 73.4 °F 94% 30.24 in 6.0 mi WSW 11.5 mph - N/A   Overcast
9:55 AM 75.2 °F - 73.4 °F 94% 30.24 in 8.0 mi WSW 12.7 mph - N/A   Overcast
10:15 AM 77.0 °F - 73.4 °F 89% 30.23 in 7.0 mi WSW 12.7 mph - N/A   Mostly Cloudy
10:35 AM 77.0 °F - 73.4 °F 89% 30.23 in 8.0 mi WSW 13.8 mph - N/A   Overcast
10:55 AM 78.8 °F - 73.4 °F 83% 30.23 in 9.0 mi WSW 15.0 mph - N/A   Mostly Cloudy
11:15 AM 78.8 °F - 73.4 °F 83% 30.22 in 10.0 mi SW 13.8 mph - N/A   Partly Cloudy
11:35 AM 80.6 °F 85.4 °F 73.4 °F 79% 30.22 in 10.0 mi SW 15.0 mph 19.6 mph N/A   Clear
11:55 AM 80.6 °F 85.4 °F 73.4 °F 79% 30.21 in 10.0 mi WSW 18.4 mph 23.0 mph N/A   Clear
12:15 PM 80.6 °F 85.4 °F 73.4 °F 79% 30.21 in 10.0 mi SW 16.1 mph 23.0 mph N/A   Clear
12:35 PM 80.6 °F 85.4 °F 73.4 °F 79% 30.21 in 10.0 mi SW 19.6 mph 25.3 mph N/A   Clear
12:55 PM 82.4 °F 88.2 °F 73.4 °F 74% 30.20 in 10.0 mi WSW 17.3 mph 24.2 mph N/A   Clear
1:15 PM 82.4 °F 88.2 °F 73.4 °F 74% 30.20 in 10.0 mi WSW 19.6 mph 25.3 mph N/A   Clear
1:35 PM 82.4 °F 88.2 °F 73.4 °F 74% 30.19 in 10.0 mi SW 19.6 mph 24.2 mph N/A   Clear
1:55 PM 82.4 °F 88.2 °F 73.4 °F 74% 30.19 in 10.0 mi WSW 20.7 mph 24.2 mph N/A   Clear
2:15 PM 82.4 °F 88.2 °F 73.4 °F 74% 30.19 in 10.0 mi WSW 23.0 mph 29.9 mph N/A   Clear
2:35 PM 82.4 °F 88.2 °F 73.4 °F 74% 30.18 in 10.0 mi WSW 19.6 mph 27.6 mph N/A   Clear
2:55 PM 82.4 °F 88.2 °F 73.4 °F 74% 30.18 in 10.0 mi WSW 18.4 mph 28.8 mph N/A   Clear
3:15 PM 82.4 °F 88.2 °F 73.4 °F 74% 30.17 in 10.0 mi WSW 21.9 mph 26.5 mph N/A   Clear
3:35 PM 82.4 °F 88.2 °F 73.4 °F 74% 30.17 in 10.0 mi SW 20.7 mph 31.1 mph N/A   Clear
3:55 PM 82.4 °F 88.2 °F 73.4 °F 74% 30.16 in 10.0 mi SW 17.3 mph 25.3 mph N/A   Clear
4:15 PM 80.6 °F 85.4 °F 73.4 °F 79% 30.16 in 10.0 mi WSW 20.7 mph 26.5 mph N/A   Clear
4:35 PM 78.8 °F - 71.6 °F 78% 30.16 in 10.0 mi SW 17.3 mph - N/A   Clear
4:55 PM 80.6 °F 85.4 °F 73.4 °F 79% 30.16 in 10.0 mi SW 15.0 mph 23.0 mph N/A   Clear
5:15 PM 78.8 °F - 71.6 °F 78% 30.16 in 10.0 mi SW 16.1 mph 23.0 mph N/A   Clear
5:35 PM 77.0 °F - 71.6 °F 83% 30.15 in 10.0 mi WSW 15.0 mph 23.0 mph N/A   Clear
5:55 PM 77.0 °F - 71.6 °F 83% 30.16 in 10.0 mi WSW 19.6 mph 24.2 mph N/A   Clear
6:15 PM 77.0 °F - 71.6 °F 83% 30.16 in 10.0 mi WSW 18.4 mph 23.0 mph N/A   Clear
6:35 PM 77.0 °F - 71.6 °F 83% 30.16 in 10.0 mi WSW 17.3 mph - N/A   Clear
6:55 PM 75.2 °F - 71.6 °F 89% 30.16 in 9.0 mi WSW 17.3 mph 24.2 mph N/A   Clear
7:15 PM 73.4 °F - 71.6 °F 94% 30.16 in 9.0 mi WSW 13.8 mph 29.9 mph N/A   Partly Cloudy
7:35 PM 73.4 °F - 71.6 °F 94% 30.17 in 9.0 mi SW 19.6 mph 23.0 mph N/A   Scattered Clouds
7:55 PM 71.6 °F - 69.8 °F 94% 30.17 in 8.0 mi WSW 17.3 mph 23.0 mph N/A   Mostly Cloudy
8:15 PM 71.6 °F - 69.8 °F 94% 30.17 in 8.0 mi WSW 16.1 mph 25.3 mph N/A   Mostly Cloudy
8:35 PM 71.6 °F - 69.8 °F 94% 30.18 in 8.0 mi WSW 13.8 mph 20.7 mph N/A   Scattered Clouds
8:55 PM 71.6 °F - 69.8 °F 94% 30.18 in 10.0 mi WSW 12.7 mph 23.0 mph N/A   Scattered Clouds
9:15 PM 71.6 °F - 69.8 °F 94% 30.18 in 9.0 mi WSW 15.0 mph 21.9 mph N/A   Overcast
9:35 PM 71.6 °F - 69.8 °F 94% 30.19 in 8.0 mi WSW 16.1 mph 20.7 mph N/A   Overcast
9:55 PM 71.6 °F - 69.8 °F 94% 30.18 in 7.0 mi WSW 16.1 mph 23.0 mph N/A   Overcast
10:15 PM 71.6 °F - 69.8 °F 94% 30.18 in 6.0 mi WSW 19.6 mph 24.2 mph N/A   Overcast
10:35 PM 71.6 °F - 69.8 °F 94% 30.18 in 7.0 mi WSW 16.1 mph 24.2 mph N/A   Overcast
10:55 PM 71.6 °F - 69.8 °F 94% 30.18 in 8.0 mi WSW 18.4 mph - N/A   Mostly Cloudy
11:15 PM 71.6 °F - 69.8 °F 94% 30.17 in 8.0 mi WSW 18.4 mph 26.5 mph N/A   Overcast
11:35 PM 71.6 °F - 69.8 °F 94% 30.17 in 8.0 mi WSW 17.3 mph 21.9 mph N/A   Overcast
11:55 PM 71.6 °F - 69.8 °F 94% 30.17 in 8.0 mi WSW 17.3 mph - N/A   Overcast